{"data":{"norad_id":58965,"intl_designator":"2024-031A","name":"STARLINK-31373","alt_names":[],"object_type":"PAYLOAD","status":"ACTIVE","operator":null,"country":"US","launch_date":"2024-02-15","launch_site_code":"AFWTR","launch_vehicle":null,"mission":null,"orbit_class":"UNKNOWN","rcs_meters":null,"size_class":null,"mass_kg":null,"dimensions":null,"purposes":["comms"],"wikipedia_slug":null,"has_3d_model":false,"image_url":null,"decayed_at":null,"tle_current":{"epoch":"2026-05-24T19:43:45.514848Z","epoch_age_seconds":87522,"freshness":"FRESH","line1":"1 58965U 24031A   26144.82205457  .00001126  00000+0  50127-4 0  9991","line2":"2 58965  53.1611 302.7660 0001100  97.2381 262.8744 15.30194996128199","mean_motion":15.30194996,"eccentricity":0.00011,"inclination_deg":53.1611,"raan_deg":302.766,"arg_perigee_deg":97.2381,"mean_anomaly_deg":262.8744,"bstar":5.0127e-5,"rev_number":12819,"period_min":94.105653447059,"perigee_km":474.47614013091,"apogee_km":475.98388087322,"semimajor_km":6853.3670105021,"source":"CELESTRAK","updated_at":"2026-05-25T13:38:18.792797Z"}}}